Location: Carnoy
(49.9849°N, 2.7558°E)
Time: 19:51:17
(UTC+00:00)

USA 267 - Pass Details

Date: 24 January 2020
Orbit: 1099 x 1108 km, 123.0° (Epoch: 10 February)

Event Time Altitude Azimuth Distance (km) Brightness Sun altitude
Exits shadow 20:17:39 45° 337° (NNW) 1,458 4.0 -36.3°
Drops below altitude 10° 20:22:56 10° 290° (WNW) 2,964 6.3 -37.2°
Sets 20:25:29 0° 285° (WNW) 3,923 7.1 -37.6°
